Terminal Aerodrome Forecast
Issued by NWS Blacksburg, VA

Current Version | Previous Version | Graphics & Text | Print | Product List | Glossary On
Versions: 1 2 3 4 5 6 7 8 9 10 11 12 13 14 15 16 17 18 19 20 21 22 23 24 25 26 27 28 29 30 31 32 33 34 35 36 37 38
000
FTUS41 KRNK 281120
TAFBLF
TAF
KBLF 281120Z 2812/2912 25003KT 6SM BR SCT002 BKN015
     FM281400 32006KT P6SM BKN025
     FM281800 31006KT P6SM BKN040
     FM290100 VRB03KT P6SM BKN250=

USA.gov is the U.S. government's official web portal to all federal, state and local government web resources and services.